Location: *
(58.7167°N, 26.1833°E)
Time: 06:40:15
(UTC+00:00)

SPOT 5 - Pass Details

Date: 25 August 2019
Orbit: 623 x 815 km, 98.3° (Epoch: 14 September)

Event Time Altitude Azimuth Distance (km) Brightness Sun altitude
Exits shadow 19:55:49 19° 182° (S) 1,519 4.1 -15.0°
Maximum altitude 19:58:52 59° 257° (WSW) 737 3.0 -15.2°
Drops below altitude 10° 20:03:16 10° 338° (NNW) 2,055 6.5 -15.5°
Sets 20:05:33 0° 342° (NNW) 2,991 7.6 -15.7°
